Regional Weather Roundup
Issued by NWS Cleveland, OH

Home | Current Version | Previous Version | Graphics & Text | Print | Product List | Glossary On
Versions: 1 2 3 4 5 6 7 8 9 10 11 12 13 14 15 16 17 18 19 20 21 22 23 24 25 26 27 28 29 30 31 32 33 34 35 36 37 38 39 40 41 42 43 44 45 46 47 48 49 50
000
ASUS41 KCLE 052310
RWRCLE
OHIO REGIONAL WEATHER ROUNDUP
NATIONAL WEATHER SERVICE CLEVELAND, OH
600 PM EST MON DEC 05 2016

NOTE: "FAIR" INDICATES FEW OR NO CLOUDS BELOW 12,000 FEET WITH NO
SIGNIFICANT WEATHER AND/OR OBSTRUCTIONS TO VISIBILITY.

OHZ001>008-015>018-024>027-034-035-043-044-060000-
   NORTHWEST OHIO

CITY           SKY/WX    TMP DP  RH WIND       PRES   REMARKS
DEFIANCE       PTCLDY    32  27  81 CALM      30.06F
FINDLAY        CLEAR     34  27  75 E5        30.05F WCI  30
TOLEDO EXPRESS CLOUDY    34  29  82 CALM      30.07F
TOLEDO EXEC    CLOUDY    35  30  82 CALM      30.09S
LIMA           CLEAR     31  29  92 E5        30.04F WCI  26
$$

OHZ009>014-019>023-028>033-038-089-060000-
   NORTHEAST OHIO

CITY           SKY/WX    TMP DP  RH WIND       PRES   REMARKS
CLE-HOPKINS    CLOUDY    37  29  72 SW5       30.12S
CLE-LAKEFRONT  MOCLDY    36  27  69 SW7       30.10R
CUY CO. ARPT   MOCLDY    36  30  80 W9        30.10R
LORAIN-ELYRIA  CLOUDY    36  28  73 CALM      30.10S
ASHTABULA      MOCLDY    35  29  78 W5        30.10R
AKRON-CANTON   MOCLDY    37  28  70 CALM      30.08S
WOOSTER        CLOUDY    31  27  85 NE5       30.08S WCI  26
MANSFIELD      PTCLDY    31  28  89 CALM      30.07R
YOUNGSTOWN     CLOUDY    36  28  73 SW3       30.08R
$$

OHZ042-051>053-060>062-070>072-077>081-060000-
  SOUTHWEST OHIO

CITY           SKY/WX    TMP DP  RH WIND       PRES   REMARKS
CINC-COVINGTON CLOUDY    41  33  73 E5        30.03R
CINC-LUNKEN    MOCLDY    41  35  79 NE3       30.05S
HAMILTON       CLOUDY    38  31  76 E5        30.05S
DAYTON         MOCLDY    35  30  82 E7        30.05R WCI  29
WRIGHT-PAT AFB PTCLDY    37  33  82 E5        30.05R
DAYTON GENERAL PTCLDY    38  31  76 E3        30.04R
WILMINGTON     PTCLDY    37  33  85 E6        30.04S
$$

OHZ036-037-039>041-045>050-054>059-063>069-073>076-082>088-060000-
  CENTRAL AND SOUTHEAST OHIO

CITY           SKY/WX    TMP DP  RH WIND       PRES   REMARKS
COLUMBUS       CLOUDY    37  31  78 E7        30.06F
OSU AIRPORT    CLOUDY    35  30  82 NE5       30.06S
BOLTON FIELD   CLEAR     36  30  80 NE6       30.06S
RICKENBACK AFB CLOUDY    34  31  87 E6        30.06S WCI  29
NEWARK         PTCLDY    36  29  75 NE3       30.07S
MARION         PTCLDY    30  26  85 SE5       30.07S WCI  25
LANCASTER      PTCLDY    35  30  82 NE6       30.07S
ZANESVILLE     PTCLDY    38  29  70 CALM      30.08S
NEW PHILLY     NOT AVBL
$$



USA.gov is the U.S. government's official web portal to all federal, state and local government web resources and services.